sat.trackr.live / text

‹ back to catalog

IRIDIUM 168

NORAD 43924 · 2019-002C

PAYLOAD ACTIVE UNKNOWN

§ Identity

Operator
Country
US
Launch date
2019-01-11
Launch site
AFWTR
Launch vehicle
Mass (kg)
RCS (m²)

Purposes: comms

External: N2YO · Heavens-Above · Gunter

§ Orbital elements

Epoch: 2026-09-15T21:33:46.744416Z

Period
100.40 min
Inclination
86.3982°
Eccentricity
0.0002244
Mean motion
14.34217313 rev/d
Perigee alt
776.1 km
Apogee alt
779.3 km
Semi-major
7,155.8 km
B*
4.4657e-5
RAAN
315.7802°
Arg perigee
95.4206°
Mean anomaly
264.7246°
Rev number
40,197

§ Raw data

IRIDIUM 1681 43924U 19002C   26258.89845769  .00000145  00000+0  44657-4 0  99922 43924  86.3982 315.7802 0002244  95.4206 264.7246 14.34217313401975

JSON: /api/v1/satellites/43924 · /tle

For live sub-satellite position, see the globe view (requires WebGL).

§ Visibility from observer

Set your observer location to see the next 7 days of passes ≥ 10°. The values pass through the URL so the page stays shareable.

No JS? Fill the form by hand. The geolocation button needs JavaScript.